FW2084 Weather Reports


time (UTC)temp
C
wind
direction
speed
KPH
gust
KPH
rain 1hr
cm
rain 24hr
cm
rain mn
cm
humidity
%
barometer
mb
20260507155557 16 219 8.0 25.7 0.00 0.00 0.00 46 1018.5
20260507155452 16 246 6.4 25.7 0.00 0.00 0.00 45 1018.5
20260507155306 16 246 6.4 25.7 0.00 0.00 0.00 45 1018.5
20260507154555 16 339 3.2 25.7 0.00 0.00 0.00 47 1018.6
20260507154056 16 319 6.4 22.5 0.00 0.00 0.00 47 1018.5
20260507153954 16 206 4.8 22.5 0.00 0.00 0.00 49 1018.8
20260507153806 16 206 4.8 22.5 0.00 0.00 0.00 49 1018.8
20260507153055 16 298 4.8 22.5 0.00 0.00 0.00 47 1018.9
20260507152555 16 199 3.2 27.4 0.00 0.00 0.00 51 1018.7
20260507152056 16 185 11.3 27.4 0.00 0.00 0.00 48 1019.1
20260507151946 16 187 9.7 19.3 0.00 0.00 0.00 48 1019.1
20260507151806 16 187 9.7 19.3 0.00 0.00 0.00 48 1019.1
20260507151304 16 183 8.0 17.7 0.00 0.00 0.00 48 1019.3
20260507151244 15 155 4.8 20.9 0.00 0.00 0.00 52 1019.3
20260507151151 16 248 14.5 19.3 0.00 0.00 0.00 47 1019.1
20260507150734 16 183 8.0 17.7 0.00 0.00 0.00 48 1019.3
20260507145556 15 195 8.0 20.9 0.00 0.00 0.00 52 1019.3
20260507145054 15 205 4.8 17.7 0.00 0.00 0.00 52 1019.4
20260507144555 15 217 4.8 17.7 0.00 0.00 0.00 52 1019.4
20260507144055 15 222 0.0 17.7 0.00 0.00 0.00 54 1019.5
20260507143947 15 185 11.3 17.7 0.00 0.00 0.00 53 1019.4
20260507143805 15 185 11.3 17.7 0.00 0.00 0.00 53 1019.4
20260507143054 15 181 8.0 16.1 0.00 0.00 0.00 55 1019.4
20260507142555 14 267 8.0 16.1 0.00 0.00 0.00 55 1019.6
20260507142054 15 204 3.2 12.9 0.00 0.00 0.00 54 1019.5
20260507141554 15 224 6.4 14.5 0.00 0.00 0.00 54 1019.7
20260507141539 14 278 4.8 14.5 0.00 0.00 0.00 58 1019.7
20260507141306 14 278 4.8 14.5 0.00 0.00 0.00 58 1019.7
20260507140954 14 177 1.6 11.3 0.00 0.00 0.00 58 1019.6
20260507140807 14 177 1.6 11.3 0.00 0.00 0.00 58 1019.6
20260507140106 14 244 8.0 11.3 0.00 0.00 0.00 58 1019.9
20260507135556 14 262 3.2 9.7 0.00 0.00 0.00 62 1019.9
20260507135054 13 249 8.0 11.3 0.00 0.00 0.00 60 1019.8
20260507134554 13 222 6.4 11.3 0.00 0.00 0.00 63 1019.9
20260507134113 13 228 8.0 11.3 0.00 0.00 0.00 64 1019.8
20260507133554 13 243 6.4 9.7 0.00 0.00 0.00 63 1019.6
20260507133054 13 150 1.6 6.4 0.00 0.00 0.00 67 1019.7
20260507132555 12 2 3.2 4.8 0.00 0.00 0.00 67 1019.6
20260507132054 12 265 0.0 4.8 0.00 0.00 0.00 69 1019.8
20260507131554 12 4 3.2 3.2 0.00 0.00 0.00 71 1019.7
20260507131453 12 260 0.0 8.0 0.00 0.00 0.00 73 1019.5
20260507131100 12 260 0.0 8.0 0.00 0.00 0.00 73 1019.5
20260507130607 11 142 0.0 8.0 0.00 0.00 0.00 75 1019.7
20260507130108 10 249 0.0 4.8 0.00 0.00 0.00 75 1019.6
20260507125941 10 147 0.0 6.4 0.00 0.00 0.00 77 1019.4
20260507125554 10 147 0.0 6.4 0.00 0.00 0.00 77 1019.4
20260507125055 10 241 1.6 6.4 0.00 0.00 0.00 77 1019.5
20260507124555 10 247 3.2 6.4 0.00 0.00 0.00 77 1019.4
20260507124055 10 217 0.0 3.2 0.00 0.00 0.00 79 1019.4
20260507123555 10 152 1.6 3.2 0.00 0.00 0.00 78 1019.3
20260507123055 9 133 3.2 3.2 0.00 0.00 0.00 79 1019.2
20260507122555 8 204 3.2 3.2 0.00 0.00 0.00 80 1019.3
20260507122451 8 172 0.0 3.2 0.00 0.00 0.00 82 1019.3
20260507122307 8 172 0.0 3.2 0.00 0.00 0.00 82 1019.3
20260507121556 8 146 3.2 3.2 0.00 0.00 0.00 83 1019.1
20260507121057 7 129 0.0 3.2 0.00 0.00 0.00 84 1019.1
20260507121044 7 165 1.6 3.2 0.00 0.00 0.00 85 1019.1
20260507120807 7 165 1.6 3.2 0.00 0.00 0.00 85 1019.1
20260507120109 7 193 1.6 3.2 0.00 0.00 0.00 86 1018.9
20260507115554 7 129 0.0 3.2 0.00 0.00 0.00 87 1018.8
20260507115051 6 143 0.0 3.2 0.00 0.00 0.00 87 1018.9
20260507114554 6 162 3.2 3.2 0.00 0.00 0.00 87 1018.7
20260507114052 6 215 1.6 3.2 0.00 0.00 0.00 88 1018.8
20260507113551 6 238 3.2 3.2 0.00 0.00 0.00 88 1018.8
20260507113524 6 207 3.2 3.2 0.00 0.00 0.00 87 1018.6
20260507113301 6 207 3.2 3.2 0.00 0.00 0.00 87 1018.6
20260507112550 6 147 0.0 3.2 0.00 0.00 0.00 87 1018.8
20260507112051 6 111 0.0 3.2 0.00 0.00 0.00 87 1018.8
20260507111953 6 139 0.0 3.2 0.00 0.00 0.00 87 1018.7
20260507111803 6 139 0.0 3.2 0.00 0.00 0.00 87 1018.7
20260507111051 6 209 0.0 3.2 0.00 0.00 0.00 87 1019.1
20260507111035 6 113 0.0 3.2 0.00 0.00 0.00 86 1018.7
20260507110754 6 113 0.0 3.2 0.00 0.00 0.00 86 1018.7
20260507110058 6 177 1.6 3.2 0.00 0.00 0.00 86 1018.5
20260507105543 6 141 1.6 3.2 0.00 0.00 0.00 86 1018.6
20260507105443 6 130 0.0 3.2 0.00 0.00 0.00 86 1018.6
20260507105042 6 130 0.0 3.2 0.00 0.00 0.00 86 1018.6
20260507104543 6 141 1.6 3.2 0.00 0.00 0.00 86 1018.8
20260507104444 7 129 0.0 3.2 0.00 0.00 0.00 85 1018.6
20260507104044 7 129 0.0 3.2 0.00 0.00 0.00 85 1018.6
20260507103542 6 13 0.0 3.2 0.00 0.00 0.00 87 1018.5
20260507103043 6 157 0.0 3.2 0.00 0.00 0.00 87 1018.3
20260507102542 6 171 1.6 4.8 0.00 0.00 0.00 87 1018.5
20260507102042 6 124 0.0 4.8 0.00 0.00 0.00 87 1018.2
20260507101544 6 209 3.2 4.8 0.00 0.00 0.00 88 1018.4
20260507101042 6 217 0.0 4.8 0.00 0.00 0.00 88 1018.5
20260507100542 6 156 1.6 3.2 0.00 0.00 0.00 87 1018.2
20260507100042 6 133 0.0 3.2 0.00 0.00 0.00 87 1018.3
20260507095544 6 140 0.0 3.2 0.00 0.00 0.00 87 1018.3
20260507095042 6 180 0.0 3.2 0.00 0.00 0.00 87 1018.3
20260507094543 6 147 0.0 3.2 0.00 0.00 0.00 87 1018.2
20260507094042 6 124 0.0 3.2 0.00 0.00 0.00 86 1018.4
20260507093612 6 271 0.0 3.2 0.00 0.00 0.00 86 1018.6
20260507093043 6 240 0.0 3.2 0.00 0.00 0.00 86 1018.2
20260507092542 6 32 0.0 3.2 0.00 0.00 0.00 86 1018.2
20260507092035 6 219 0.0 4.8 0.00 0.00 0.00 88 1018.2
20260507091536 6 124 1.6 4.8 0.00 0.00 0.00 88 1018.2
20260507091037 6 3 3.2 3.2 0.00 0.00 0.00 91 1018.1
20260507090554 5 135 0.0 4.8 0.00 0.00 0.00 91 1017.8
20260507090037 5 221 3.2 4.8 0.00 0.00 0.00 91 1018.2
20260507085536 5 132 3.2 3.2 0.00 0.00 0.00 91 1018.0
20260507085425 5 74 1.6 3.2 0.00 0.00 0.00 91 1018.1
20260507085249 5 74 1.6 3.2 0.00 0.00 0.00 91 1018.1
20260507084538 5 50 0.0 4.8 0.00 0.00 0.00 91 1018.1
20260507084035 5 193 0.0 4.8 0.00 0.00 0.00 91 1017.9
20260507083822 5 124 0.0 1.6 0.00 0.00 0.00 90 1018.3
20260507083812 5 150 3.2 3.2 0.00 0.00 0.00 90 1018.1
20260507083656 5 143 3.2 3.2 0.00 0.00 0.00 91 1018.0
20260507083210 5 150 3.2 3.2 0.00 0.00 0.00 90 1018.1
20260507082747 5 124 0.0 1.6 0.00 0.00 0.00 90 1018.3
20260507082036 5 49 0.0 3.2 0.00 0.00 0.00 90 1018.1
20260507081936 5 129 0.0 3.2 0.00 0.00 0.00 89 1018.0
20260507081748 5 129 0.0 3.2 0.00 0.00 0.00 89 1018.0
20260507081048 5 67 0.0 3.2 0.00 0.00 0.00 89 1018.2
20260507080946 5 123 3.2 3.2 0.00 0.00 0.00 89 1018.1
20260507080546 5 123 3.2 3.2 0.00 0.00 0.00 89 1018.1
20260507080426 5 118 1.6 3.2 0.00 0.00 0.00 89 1018.2
20260507080245 5 118 1.6 3.2 0.00 0.00 0.00 89 1018.2
20260507075535 6 131 0.0 3.2 0.00 0.00 0.00 89 1018.4
20260507075039 6 212 0.0 1.6 0.00 0.00 0.00 88 1018.3
20260507074925 6 142 0.0 3.2 0.00 0.00 0.00 88 1018.5
20260507074746 6 142 0.0 3.2 0.00 0.00 0.00 88 1018.5
20260507074036 6 89 0.0 3.2 0.00 0.00 0.00 88 1018.4
20260507073536 6 125 1.6 3.2 0.00 0.00 0.00 87 1018.5
20260507073038 6 159 1.6 3.2 0.00 0.00 0.00 87 1018.5
20260507072537 6 160 0.0 3.2 0.00 0.00 0.00 86 1018.3
20260507072035 6 132 1.6 3.2 0.00 0.00 0.00 86 1018.1
20260507071923 6 129 0.0 3.2 0.00 0.00 0.00 85 1018.4
20260507071535 6 129 0.0 3.2 0.00 0.00 0.00 85 1018.4
20260507071039 6 162 3.2 4.8 0.00 0.00 0.00 84 1018.1
20260507070955 7 153 0.0 4.8 0.00 0.00 0.00 83 1018.2
20260507070542 7 143 1.6 4.8 0.00 0.00 0.00 84 1018.0
20260507070048 7 153 0.0 4.8 0.00 0.00 0.00 83 1018.2
20260507065933 7 161 3.2 4.8 0.00 0.00 0.00 83 1018.2
20260507065748 7 161 3.2 4.8 0.00 0.00 0.00 83 1018.2
20260507065036 7 176 3.2 4.8 0.00 0.00 0.00 82 1018.2
20260507064749 7 185 4.8 4.8 0.00 0.00 0.00 83 1018.4
20260507064611 7 178 3.2 4.8 0.00 0.00 0.00 82 1018.4
20260507064205 7 179 3.2 4.8 0.00 0.00 0.00 84 1018.6
20260507063534 7 185 4.8 4.8 0.00 0.00 0.00 83 1018.4
20260507063035 7 176 1.6 3.2 0.00 0.00 0.00 82 1018.9
20260507062533 7 138 1.6 3.2 0.00 0.00 0.00 82 1018.6
20260507062036 7 129 0.0 3.2 0.00 0.00 0.00 82 1018.9
20260507061536 7 190 1.6 3.2 0.00 0.00 0.00 82 1018.8
20260507061440 7 129 0.0 1.6 0.00 0.00 0.00 82 1019.1
20260507061034 7 129 0.0 1.6 0.00 0.00 0.00 82 1019.1
20260507060533 7 209 0.0 1.6 0.00 0.00 0.00 81 1018.9
20260507060035 7 142 0.0 3.2 0.00 0.00 0.00 80 1018.8
20260507055804 8 166 4.8 4.8 0.00 0.00 0.00 79 1018.9
20260507055751 8 156 3.2 4.8 0.00 0.00 0.00 79 1018.7
20260507055644 8 55 0.0 3.2 0.00 0.00 0.00 80 1018.9
20260507055429 8 156 3.2 4.8 0.00 0.00 0.00 79 1018.7
20260507054741 8 166 4.8 4.8 0.00 0.00 0.00 79 1018.9
20260507054428 8 233 3.2 3.2 0.00 0.00 0.00 79 1019.1
20260507054029 8 233 3.2 3.2 0.00 0.00 0.00 79 1019.1
20260507053533 8 180 1.6 3.2 0.00 0.00 0.00 79 1019.1
20260507053521 8 151 0.0 3.2 0.00 0.00 0.00 78 1018.9
20260507053030 8 151 0.0 3.2 0.00 0.00 0.00 78 1018.9
20260507052930 8 217 3.2 3.2 0.00 0.00 0.00 78 1018.9
20260507052741 8 217 3.2 3.2 0.00 0.00 0.00 78 1018.9
20260507052025 8 186 1.6 3.2 0.00 0.00 0.00 76 1018.6
20260507051517 9 142 0.0 3.2 0.00 0.00 0.00 75 1018.7
20260507051026 9 166 0.0 3.2 0.00 0.00 0.00 74 1018.7
20260507050545 9 257 0.0 4.8 0.00 0.00 0.00 75 1018.6
20260507050034 9 29 0.0 4.8 0.00 0.00 0.00 75 1018.6
20260507045515 9 48 0.0 1.6 0.00 0.00 0.00 76 1018.7
20260507045015 9 135 0.0 1.6 0.00 0.00 0.00 76 1018.4
20260507044516 9 154 0.0 4.8 0.00 0.00 0.00 76 1018.4
20260507044425 9 354 0.0 4.8 0.00 0.00 0.00 76 1018.5
20260507044228 9 354 0.0 4.8 0.00 0.00 0.00 76 1018.5
20260507043516 8 1 3.2 6.4 0.00 0.00 0.00 78 1017.9
20260507043015 8 126 3.2 6.4 0.00 0.00 0.00 79 1017.7
20260507042516 8 96 3.2 3.2 0.00 0.00 0.00 79 1017.6
20260507042016 8 135 3.2 3.2 0.00 0.00 0.00 79 1017.8
20260507041517 8 69 1.6 4.8 0.00 0.00 0.00 80 1017.5
20260507041015 8 130 3.2 4.8 0.00 0.00 0.00 79 1017.6
20260507040915 8 123 3.2 4.8 0.00 0.00 0.00 79 1017.7
20260507040516 8 123 3.2 4.8 0.00 0.00 0.00 79 1017.7
20260507040450 10 160 1.6 3.2 0.00 0.00 0.00 72 1017.6
20260507040240 9 125 3.2 3.2 0.00 0.00 0.00 78 1017.8
20260507035516 9 111 3.2 4.8 0.00 0.00 0.00 77 1017.9
20260507035453 10 117 0.0 4.8 0.00 0.00 0.00 74 1017.9
20260507035443 9 151 3.2 4.8 0.00 0.00 0.00 77 1017.8
20260507035240 9 151 3.2 4.8 0.00 0.00 0.00 77 1017.8
20260507034552 9 127 1.6 3.2 0.00 0.00 0.00 76 1017.9
20260507034206 10 86 3.2 4.8 0.00 0.00 0.00 74 1017.7
20260507034111 10 130 0.0 3.2 0.00 0.00 0.00 76 1017.9
20260507033901 10 117 0.0 4.8 0.00 0.00 0.00 74 1017.9
20260507033438 10 86 3.2 4.8 0.00 0.00 0.00 74 1017.7
20260507032728 10 160 1.6 3.2 0.00 0.00 0.00 72 1017.6
20260507032014 10 34 1.6 3.2 0.00 0.00 0.00 72 1017.7
20260507031919 11 93 0.0 3.2 0.00 0.00 0.00 70 1017.6
20260507031514 11 93 0.0 3.2 0.00 0.00 0.00 70 1017.6
20260507031418 11 145 0.0 3.2 0.00 0.00 0.00 69 1017.4
20260507031014 11 145 0.0 3.2 0.00 0.00 0.00 69 1017.4
20260507030915 11 146 1.6 4.8 0.00 0.00 0.00 68 1017.4
20260507030724 11 146 1.6 4.8 0.00 0.00 0.00 68 1017.4
20260507030436 11 135 3.2 6.4 0.00 0.00 0.00 68 1017.3
20260507030235 11 135 3.2 6.4 0.00 0.00 0.00 68 1017.3
20260507025519 12 93 3.2 6.4 0.00 0.00 0.00 67 1017.3
20260507025425 12 63 3.2 11.3 0.00 0.00 0.00 63 1017.2
20260507025406 12 103 3.2 11.3 0.00 0.00 0.00 64 1017.1
20260507025209 12 102 3.2 6.4 0.00 0.00 0.00 65 1017.4
20260507024736 12 103 3.2 11.3 0.00 0.00 0.00 64 1017.1
20260507024221 12 63 3.2 11.3 0.00 0.00 0.00 63 1017.2
20260507023525 12 91 6.4 8.0 0.00 0.00 0.00 63 1017.1
20260507023521 12 108 3.2 8.0 0.00 0.00 0.00 63 1017.1
20260507023442 13 86 4.8 11.3 0.00 0.00 0.00 62 1017.1
20260507023019 13 88 3.2 11.3 0.00 0.00 0.00 62 1017.1
20260507022512 13 75 6.4 11.3 0.00 0.00 0.00 61 1017.1
20260507022507 13 75 8.0 11.3 0.00 0.00 0.00 61 1017.1
20260507022013 13 73 3.2 9.7 0.00 0.00 0.00 61 1016.9
20260507022009 13 57 6.4 9.7 0.00 0.00 0.00 61 1016.9
20260507021514 13 69 6.4 11.3 0.00 0.00 0.00 61 1016.9
20260507021508 13 56 6.4 11.3 0.00 0.00 0.00 61 1016.9
20260507021012 13 70 9.7 11.3 0.00 0.00 0.00 61 1017.0
20260507021008 13 48 9.7 11.3 0.00 0.00 0.00 61 1017.0
20260507020525 13 38 4.8 11.3 0.00 0.00 0.00 61 1016.8
20260507020521 13 72 3.2 11.3 0.00 0.00 0.00 61 1016.8
20260507020432 13 58 6.4 11.3 0.00 0.00 0.00 61 1016.7
20260507020009 13 69 4.8 11.3 0.00 0.00 0.00 61 1016.7
20260507015512 13 78 4.8 14.5 0.00 0.00 0.00 60 1016.5
20260507015508 13 63 4.8 14.5 0.00 0.00 0.00 60 1016.5
20260507015443 14 63 8.0 17.7 0.00 0.00 0.00 59 1016.5
20260507015434 14 103 4.8 17.7 0.00 0.00 0.00 59 1016.3
20260507015224 14 62 9.7 17.7 0.00 0.00 0.00 59 1016.5
20260507014509 14 80 6.4 17.7 0.00 0.00 0.00 59 1016.3
20260507014009 14 54 16.1 16.1 0.00 0.00 0.00 58 1016.3
20260507014005 14 50 12.9 12.9 0.00 0.00 0.00 58 1016.3
20260507013528 14 94 6.4 12.9 0.00 0.00 0.00 58 1016.3
20260507013521 14 79 4.8 12.9 0.00 0.00 0.00 58 1016.3
20260507013101 15 85 4.8 11.3 0.00 0.00 0.00 58 1016.3
20260507013024 15 95 6.4 12.9 0.00 0.00 0.00 58 1016.3
20260507013020 15 100 4.8 12.9 0.00 0.00 0.00 58 1016.3
20260507012519 15 58 6.4 11.3 0.00 0.00 0.00 58 1016.3
20260507012009 15 76 3.2 11.3 0.00 0.00 0.00 57 1016.3
20260507012003 15 50 3.2 11.3 0.00 0.00 0.00 57 1016.3
20260507011911 15 93 3.2 11.3 0.00 0.00 0.00 57 1016.2
20260507011716 15 60 4.8 11.3 0.00 0.00 0.00 57 1016.2
20260507011033 15 99 6.4 19.3 0.00 0.00 0.00 57 1016.3
20260507011018 15 70 6.4 19.3 0.00 0.00 0.00 57 1016.3
20260507010515 15 100 3.2 19.3 0.00 0.00 0.00 56 1016.3
20260507010458 15 72 6.4 19.3 0.00 0.00 0.00 56 1016.3
20260507010010 15 78 3.2 14.5 0.00 0.00 0.00 56 1016.3
20260507005954 15 96 4.8 14.5 0.00 0.00 0.00 56 1016.3
20260507005510 15 70 4.8 11.3 0.00 0.00 0.00 56 1016.3
20260507005500 15 51 3.2 11.3 0.00 0.00 0.00 56 1016.3
20260507005005 15 85 6.4 12.9 0.00 0.00 0.00 55 1015.8
20260507004954 15 64 3.2 12.9 0.00 0.00 0.00 55 1015.8
20260507004714 15 84 4.8 16.1 0.00 0.00 0.00 53 1015.8
20260507004608 15 61 3.2 14.5 0.00 0.00 0.00 54 1016.0
20260507004559 15 63 6.4 14.5 0.00 0.00 0.00 54 1016.0
20260507004137 15 93 6.4 16.1 0.00 0.00 0.00 54 1015.9
20260507004127 15 88 6.4 16.1 0.00 0.00 0.00 54 1015.9
20260507003449 15 77 6.4 16.1 0.00 0.00 0.00 53 1015.8
20260507003003 16 89 4.8 22.5 0.00 0.00 0.00 54 1015.9
20260507002948 16 15 0.0 22.5 0.00 0.00 0.00 54 1015.9
20260507002936 16 92 6.4 22.5 0.00 0.00 0.00 52 1015.9
20260507002449 16 61 9.7 22.5 0.00 0.00 0.00 52 1015.9
20260507002004 16 52 14.5 20.9 0.00 0.00 0.00 51 1015.7
20260507001949 16 51 17.7 20.9 0.00 0.00 0.00 51 1015.7
20260507001501 16 40 8.0 20.9 0.00 0.00 0.00 51 1015.6
20260507001448 16 51 12.9 20.9 0.00 0.00 0.00 51 1015.6
20260507001340 16 58 9.7 14.5 0.00 0.00 0.00 52 1015.6
20260507000949 16 74 8.0 14.5 0.00 0.00 0.00 52 1015.6
20260507000511 16 43 9.7 20.9 0.00 0.00 0.00 52 1015.6
20260507000502 16 65 8.0 20.9 0.00 0.00 0.00 52 1015.6
20260507000003 16 40 6.4 20.9 0.00 0.00 0.00 52 1015.6
20260506235950 16 0 4.8 20.9 0.00 0.00 0.00 51 1015.6
20260506235600 17 46 12.9 25.7 0.00 0.00 0.00 49 1015.2
20260506235549 16 67 9.7 22.5 0.00 0.00 0.00 51 1015.4
20260506235537 16 98 14.5 25.7 0.00 0.00 0.00 50 1015.3
20260506235517 16 60 17.7 20.9 0.00 0.00 0.00 51 1015.4
20260506235506 16 58 12.9 20.9 0.00 0.00 0.00 50 1015.4
20260506235048 16 52 11.3 22.5 0.00 0.00 0.00 50 1015.4
20260506234848 16 63 4.8 25.7 0.00 0.00 0.00 50 1015.3
20260506233949 17 49 6.4 25.7 0.00 0.00 0.00 49 1015.2
20260506233850 16 103 3.2 22.5 0.00 0.00 0.00 50 1015.4
20260506233451 16 91 19.3 22.5 0.00 0.00 0.00 50 1015.4
20260506233350 17 100 17.7 20.9 0.00 0.00 0.00 49 1015.4
20260506232949 17 88 8.0 17.7 0.00 0.00 0.00 49 1015.4
20260506232502 17 110 9.7 20.9 0.00 0.00 0.00 49 1015.2
20260506232450 17 86 8.0 20.9 0.00 0.00 0.00 49 1015.2
20260506232339 17 115 8.0 20.9 0.00 0.00 0.00 49 1015.2
20260506232208 17 40 8.0 20.9 0.00 0.00 0.00 49 1015.2
20260506231846 17 59 16.1 20.9 0.00 0.00 0.00 49 1015.1
20260506231710 17 47 11.3 20.9 0.00 0.00 0.00 49 1015.1
20260506231001 17 100 8.0 16.1 0.00 0.00 0.00 49 1015.1
20260506230948 17 78 9.7 16.1 0.00 0.00 0.00 49 1015.1
20260506230510 17 110 8.0 22.5 0.00 0.00 0.00 49 1015.0
20260506230458 17 77 11.3 22.5 0.00 0.00 0.00 48 1015.0
20260506230339 17 91 8.0 22.5 0.00 0.00 0.00 50 1015.0
20260506230205 17 83 4.8 22.5 0.00 0.00 0.00 50 1015.0
20260506225502 16 101 9.7 22.5 0.00 0.00 0.00 50 1015.1
20260506225449 16 80 9.7 22.5 0.00 0.00 0.00 50 1015.1
20260506225259 16 91 11.3 32.2 0.00 0.00 0.00 52 1015.0
20260506225138 17 98 9.7 22.5 0.00 0.00 0.00 50 1015.2
20260506225129 17 135 4.8 22.5 0.00 0.00 0.00 50 1015.2
20260506224448 16 40 8.0 32.2 0.00 0.00 0.00 52 1015.0
20260506224002 17 72 11.3 32.2 0.00 0.00 0.00 51 1014.9
20260506223948 17 83 20.9 32.2 0.00 0.00 0.00 51 1014.9
20260506223838 17 109 9.7 29.0 0.00 0.00 0.00 51 1014.7
20260506223707 17 158 12.9 29.0 0.00 0.00 0.00 51 1014.7
20260506223348 16 61 4.8 29.0 0.00 0.00 0.00 51 1014.8
20260506223209 16 95 12.9 29.0 0.00 0.00 0.00 51 1014.8
20260506222502 17 49 12.9 27.4 0.00 0.00 0.00 49 1014.8
20260506222449 17 70 9.7 27.4 0.00 0.00 0.00 49 1014.8
20260506222351 17 104 6.4 19.3 0.00 0.00 0.00 50 1014.7
20260506222209 17 11 3.2 24.1 0.00 0.00 0.00 50 1014.8
20260506222158 17 51 8.0 24.1 0.00 0.00 0.00 49 1014.8
20260506221502 17 83 9.7 19.3 0.00 0.00 0.00 51 1014.7
20260506221002 17 68 9.7 24.1 0.00 0.00 0.00 52 1014.7
20260506220948 17 104 6.4 25.7 0.00 0.00 0.00 52 1014.7
20260506220900 16 34 8.0 30.6 0.00 0.00 0.00 53 1014.5
20260506220707 16 100 8.0 30.6 0.00 0.00 0.00 53 1014.5
20260506220012 16 41 25.7 30.6 0.00 0.00 0.00 52 1014.8
20260506215949 16 97 8.0 30.6 0.00 0.00 0.00 53 1014.8
20260506215507 16 117 6.4 27.4 0.00 0.00 0.00 54 1014.6
20260506215450 16 109 9.7 27.4 0.00 0.00 0.00 54 1014.6
20260506215006 16 94 19.3 27.4 0.00 0.00 0.00 53 1014.9
20260506214953 16 116 12.9 27.4 0.00 0.00 0.00 53 1014.9
20260506214837 17 81 9.7 19.3 0.00 0.00 0.00 52 1014.7
20260506214708 17 93 14.5 19.3 0.00 0.00 0.00 52 1014.7
20260506214002 16 76 9.7 25.7 0.00 0.00 0.00 53 1014.8
20260506213949 16 76 9.7 27.4 0.00 0.00 0.00 53 1014.8
20260506213847 16 60 9.7 27.4 0.00 0.00 0.00 55 1014.9
20260506213449 16 69 11.3 27.4 0.00 0.00 0.00 55 1014.9
20260506213002 16 45 22.5 27.4 0.00 0.00 0.00 56 1015.0
20260506212949 16 48 6.4 19.3 0.00 0.00 0.00 56 1015.0
20260506212711 16 73 6.4 24.1 0.00 0.00 0.00 56 1015.1
20260506212702 16 83 20.9 24.1 0.00 0.00 0.00 55 1015.1
20260506212534 16 73 11.3 27.4 0.00 0.00 0.00 55 1014.9
20260506212524 16 108 9.7 27.4 0.00 0.00 0.00 55 1014.9
20260506212102 16 49 12.9 27.4 0.00 0.00 0.00 56 1015.1
20260506212050 16 77 11.3 27.4 0.00 0.00 0.00 56 1015.1
20260506211847 16 73 4.8 24.1 0.00 0.00 0.00 56 1015.1
20260506211207 16 58 17.7 24.1 0.00 0.00 0.00 55 1015.1
20260506210501 16 101 4.8 24.1 0.00 0.00 0.00 56 1015.1
20260506210448 16 87 9.7 24.1 0.00 0.00 0.00 55 1015.1
20260506210004 16 75 9.7 27.4 0.00 0.00 0.00 56 1015.2
20260506205950 16 46 8.0 27.4 0.00 0.00 0.00 57 1015.2
20260506205501 16 54 11.3 27.4 0.00 0.00 0.00 55 1015.1
20260506205450 16 47 14.5 27.4 0.00 0.00 0.00 55 1015.1
20260506205346 16 133 6.4 20.9 0.00 0.00 0.00 55 1015.2
20260506205207 16 50 16.1 20.9 0.00 0.00 0.00 55 1015.2
20260506204502 16 44 9.7 22.5 0.00 0.00 0.00 55 1015.2
20260506204449 16 88 8.0 22.5 0.00 0.00 0.00 56 1015.2
20260506204004 15 55 9.7 24.1 0.00 0.00 0.00 57 1015.4
20260506203950 15 72 12.9 24.1 0.00 0.00 0.00 57 1015.4
20260506203501 15 50 19.3 24.1 0.00 0.00 0.00 57 1015.5
20260506203449 15 92 8.0 24.1 0.00 0.00 0.00 57 1015.5
20260506203348 15 93 4.8 24.1 0.00 0.00 0.00 57 1015.4
20260506203207 15 93 9.7 24.1 0.00 0.00 0.00 57 1015.4
20260506202502 16 85 14.5 22.5 0.00 0.00 0.00 56 1015.4
20260506202448 16 92 9.7 22.5 0.00 0.00 0.00 56 1015.4
20260506202349 16 40 16.1 25.7 0.00 0.00 0.00 55 1015.3
20260506202207 16 67 9.7 25.7 0.00 0.00 0.00 56 1015.3
20260506201504 16 60 14.5 27.4 0.00 0.00 0.00 55 1015.5
20260506201452 16 66 19.3 27.4 0.00 0.00 0.00 56 1015.5
20260506201356 16 59 11.3 27.4 0.00 0.00 0.00 56 1015.3
20260506201208 16 53 4.8 27.4 0.00 0.00 0.00 56 1015.3
20260506200502 15 17 6.4 24.1 0.00 0.00 0.00 56 1015.3
20260506200449 15 101 3.2 24.1 0.00 0.00 0.00 56 1015.3
20260506200005 15 58 6.4 32.2 0.00 0.00 0.00 56 1015.5
20260506195949 15 30 8.0 32.2 0.00 0.00 0.00 56 1015.5
20260506195927 15 17 14.5 32.2 0.00 0.00 0.00 56 1015.5
20260506195448 15 17 9.7 32.2 0.00 0.00 0.00 56 1015.5
20260506195311 16 54 17.7 29.0 0.00 0.00 0.00 55 1015.4
20260506195143 16 77 3.2 27.4 0.00 0.00 0.00 55 1015.4
20260506195132 16 36 6.4 27.4 0.00 0.00 0.00 55 1015.4
20260506194710 16 82 9.7 29.0 0.00 0.00 0.00 55 1015.4
20260506194002 16 50 6.4 29.0 0.00 0.00 0.00 55 1015.2
20260506193949 16 101 9.7 29.0 0.00 0.00 0.00 56 1015.2
20260506193851 16 27 6.4 27.4 0.00 0.00 0.00 55 1015.4
20260506193451 16 14 4.8 27.4 0.00 0.00 0.00 55 1015.4
20260506193002 16 11 11.3 22.5 0.00 0.00 0.00 54 1015.4
20260506192950 16 33 9.7 22.5 0.00 0.00 0.00 54 1015.4
20260506192916 15 94 6.4 27.4 0.00 0.00 0.00 55 1015.6
20260506192732 15 59 11.3 27.4 0.00 0.00 0.00 55 1015.6
20260506192348 16 113 16.1 33.8 0.00 0.00 0.00 54 1015.7
20260506191950 16 88 11.3 33.8 0.00 0.00 0.00 55 1015.7
20260506191851 16 96 19.3 33.8 0.00 0.00 0.00 55 1015.6
20260506191448 16 91 9.7 33.8 0.00 0.00 0.00 55 1015.6
20260506191101 16 185 4.8 30.6 0.00 0.00 0.00 53 1015.6
20260506191019 16 115 16.1 22.5 0.00 0.00 0.00 53 1015.6
20260506191008 16 61 3.2 19.3 0.00 0.00 0.00 54 1015.6
20260506190621 15 92 6.4 25.7 0.00 0.00 0.00 55 1015.6
20260506190534 16 174 4.8 25.7 0.00 0.00 0.00 53 1015.7
20260506190524 16 142 6.4 25.7 0.00 0.00 0.00 53 1015.7
20260506190106 15 58 6.4 25.7 0.00 0.00 0.00 54 1015.6
20260506185740 15 95 16.1 33.8 0.00 0.00 0.00 55 1015.7
20260506185629 16 87 6.4 33.8 0.00 0.00 0.00 54 1015.5
20260506185614 16 124 8.0 33.8 0.00 0.00 0.00 54 1015.5
20260506185129 15 57 8.0 33.8 0.00 0.00 0.00 56 1015.7
20260506184450 16 144 9.7 30.6 0.00 0.00 0.00 52 1015.6
20260506184050 16 147 6.4 30.6 0.00 0.00 0.00 53 1016.2
20260506184040 15 84 6.4 33.8 0.00 0.00 0.00 55 1016.2
20260506184032 15 62 12.9 29.0 0.00 0.00 0.00 54 1016.0
20260506184016 16 142 11.3 30.6 0.00 0.00 0.00 53 1016.2
20260506184006 16 87 14.5 33.8 0.00 0.00 0.00 53 1015.8
20260506183954 16 92 27.4 33.8 0.00 0.00 0.00 53 1015.8
20260506183746 15 22 9.7 33.8 0.00 0.00 0.00 55 1016.2
20260506183113 16 84 17.7 25.7 0.00 0.00 0.00 53 1015.8
20260506183102 16 84 17.7 25.7 0.00 0.00 0.00 53 1015.8
20260506182645 15 53 8.0 29.0 0.00 0.00 0.00 54 1016.0
20260506181501 15 102 12.9 30.6 0.00 0.00 0.00 55 1016.2
20260506181449 15 156 14.5 30.6 0.00 0.00 0.00 55 1016.2
20260506181002 15 108 8.0 30.6 0.00 0.00 0.00 54 1016.3
20260506180937 15 75 17.7 29.0 0.00 0.00 0.00 53 1016.3
20260506180502 15 81 20.9 37.0 0.00 0.00 0.00 54 1016.6
20260506180436 15 109 4.8 37.0 0.00 0.00 0.00 54 1016.6
20260506180001 15 121 8.0 37.0 0.00 0.00 0.00 54 1016.5
20260506175936 15 60 14.5 37.0 0.00 0.00 0.00 53 1016.5
20260506175851 15 96 14.5 33.8 0.00 0.00 0.00 54 1016.6
20260506175437 15 79 12.9 33.8 0.00 0.00 0.00 54 1016.6
20260506175002 15 91 11.3 33.8 0.00 0.00 0.00 55 1016.6
20260506174937 15 79 8.0 33.8 0.00 0.00 0.00 54 1016.6
20260506174502 15 87 17.7 33.8 0.00 0.00 0.00 54 1016.7
20260506174437 15 105 22.5 33.8 0.00 0.00 0.00 55 1016.7
20260506174003 15 87 19.3 27.4 0.00 0.00 0.00 53 1016.7
20260506173938 15 113 9.7 27.4 0.00 0.00 0.00 55 1016.7
20260506173502 15 94 11.3 33.8 0.00 0.00 0.00 53 1016.7
20260506173438 15 82 12.9 33.8 0.00 0.00 0.00 54 1016.7
20260506173002 15 122 12.9 33.8 0.00 0.00 0.00 54 1016.5
20260506172937 15 188 8.0 33.8 0.00 0.00 0.00 56 1016.5
20260506172502 14 127 12.9 30.6 0.00 0.00 0.00 55 1016.5
20260506172437 14 114 12.9 30.6 0.00 0.00 0.00 54 1016.5
20260506172002 15 107 20.9 29.0 0.00 0.00 0.00 53 1016.7
20260506171937 15 91 20.9 29.0 0.00 0.00 0.00 54 1016.7
20260506171824 13 93 9.7 30.6 0.00 0.00 0.00 57 1017.1
20260506171814 14 43 14.5 32.2 0.00 0.00 0.00 57 1016.9
20260506171640 14 162 8.0 32.2 0.00 0.00 0.00 56 1016.5
20260506171626 14 111 9.7 32.2 0.00 0.00 0.00 56 1016.5
20260506170957 14 87 19.3 38.6 0.00 0.00 0.00 54 1016.8
20260506170941 14 131 8.0 32.2 0.00 0.00 0.00 57 1016.9
20260506170519 14 123 4.8 38.6 0.00 0.00 0.00 54 1016.8
20260506170139 13 107 9.7 41.8 0.00 0.00 0.00 59 1016.8
20260506170127 13 81 19.3 41.8 0.00 0.00 0.00 58 1016.9
20260506170048 13 124 11.3 38.6 0.00 0.00 0.00 57 1016.8
20260506170034 13 107 20.9 38.6 0.00 0.00 0.00 57 1016.8
20260506165610 13 99 20.9 41.8 0.00 0.00 0.00 58 1016.8
20260506165411 13 103 24.1 41.8 0.00 0.00 0.00 58 1016.9
20260506164701 13 88 27.4 33.8 0.00 0.00 0.00 57 1017.1
20260506164001 13 125 14.5 33.8 0.00 0.00 0.00 57 1017.0
20260506163937 13 134 14.5 33.8 0.00 0.00 0.00 59 1017.0
20260506163834 13 111 19.3 40.2 0.00 0.00 0.00 58 1016.9
20260506163659 13 92 12.9 35.4 0.00 0.00 0.00 58 1016.9
20260506163001 13 106 12.9 40.2 0.00 0.00 0.00 60 1017.0
20260506162936 13 96 11.3 40.2 0.00 0.00 0.00 59 1017.0
20260506162503 12 92 29.0 40.2 0.00 0.00 0.00 60 1017.0
20260506162439 12 80 14.5 38.6 0.00 0.00 0.00 59 1017.0
20260506162005 12 108 6.4 40.2 0.00 0.00 0.00 61 1017.1
20260506161950 12 93 14.5 40.2 0.00 0.00 0.00 60 1017.1
20260506161501 12 128 17.7 40.2 0.00 0.00 0.00 60 1017.0
20260506161437 12 95 17.7 40.2 0.00 0.00 0.00 60 1017.0
20260506161003 12 81 17.7 40.2 0.00 0.00 0.00 61 1017.3
20260506160936 12 89 14.5 40.2 0.00 0.00 0.00 61 1017.3
20260506160824 12 100 19.3 38.6 0.00 0.00 0.00 65 1016.9
20260506160646 12 130 11.3 38.6 0.00 0.00 0.00 64 1017.0
20260506160630 12 118 12.9 38.6 0.00 0.00 0.00 63 1017.0
20260506160158 12 65 17.7 38.6 0.00 0.00 0.00 65 1016.9